Hourly Data Report for August 03, 2021

MIRAMICHI RCS
NEW BRUNSWICK
Current Station Operator: ECCC - MSC

47°00'34.000" N
65°27'54.000" W
33.00 m
8100989
71744
ACQ

Download Data

Hourly Data (August 2021)
Hourly Data Report for August 3, 2021
TIME
LST
Temp Definition
°C
Dew Point Definition
°C
Rel Hum Definition
%
Precip. Amount Definition
mm

Wind Dir Definition
10's deg

Wind Spd Definition
km/h
Visibility Definition
km
Stn Press Definition
kPa
Hmdx Definition


Wind Chill Definition


Weather Definition


00:00 13.0 12.4 96 0.0 24 12   100.68     LegendNANA
01:00 12.7 12.0 95 0.0 26 7   100.73     LegendNANA
02:00 12.0 11.4 96 0.0 24 7   100.77     LegendNANA
03:00 12.4 11.8 96 0.0 26 11   100.80     LegendNANA
04:00 12.2 11.6 96 0.0 25 10   100.84     LegendNANA
05:00 10.6 10.1 96 0.2 23 10   100.88     LegendNANA
06:00 11.8 11.0 95 0.0 24 11   100.94     LegendNANA
07:00 13.5 12.1 92 0.0 23 12   100.98     LegendNANA
08:00 15.3 12.5 84 0.0 23 17   100.99     LegendNANA
09:00 17.9 13.3 74 0.0 24 19   100.98     LegendNANA
10:00 20.2 13.8 66 0.0 23 19   100.98     LegendNANA
11:00 22.4 14.6 62 0.0 24 22   100.97 26   LegendNANA
12:00 23.9 13.7 53 0.0 22 28   100.92 27   LegendNANA
13:00 24.8 12.7 47 0.0 23 31   100.86 27   LegendNANA
14:00 25.9 12.7 44 0.0 23 30   100.84 29   LegendNANA
15:00 25.3 12.4 45 0.0 23 28   100.81 28   LegendNANA
16:00 26.0 12.3 42 0.0 23 29   100.79 28   LegendNANA
17:00 25.8 13.3 46 0.0 23 27   100.84 29   LegendNANA
18:00 24.8 13.6 50 0.0 23 22   100.86 28   LegendNANA
19:00 23.3 13.7 55 0.0 22 15   100.91 26   LegendNANA
20:00 22.1 13.3 57 0.0 23 15   100.95 25   LegendNANA
21:00 21.7 13.4 59 0.0 22 14   101.03 25   LegendNANA
22:00 20.8 13.2 62 0.0 22 18   101.08     LegendNANA
23:00 19.4 13.3 68 0.0 21 17   101.16     LegendNANA

Notes on Data Quality.

Legend

  • E = Estimated
  • M = Missing
  • NA = Not Available*
  • [empty] = Indicates an unobserved value
Date modified: